Tracking 18980 objects as of 22-Feb-2018
HD Live streaming from Space Station
objects crossing your sky now

FENGYUN 1C DEB

Track FENGYUN 1C DEB now!
10-day predictions


NORAD ID: 30406
Int'l Code: 1999-025ADV
Perigee: 851.7 km
Apogee: 1,294.3 km
Inclination: 98.6 °
Period: 106.5 minutes
Semi major axis: 7444 km
RCS: 0.0212 m2 (small)
Launch date: May 10, 1999
Source: People's Republic of China (PRC)
Launch site: Taiyaun Space Center, China (TSC)

Note: This is SATELLITE DEBRIS
aabbcc
Your satellite tracking list
Your tracking list is empty




NASA's NSSDC Master Catalog

Two Line Element Set (TLE):
1 30406U 99025ADV 18052.57877759  .00000209  00000-0  28281-3 0  9994
2 30406  98.6049 270.2291 0297288 182.9184 235.6922 13.51733311546038
Source of the keplerian elements: AFSPC